Central Park, NY

3:54 PM EDT on August 21, 2017 (GMT -0400)
Central Park

Weather History for KNYC - July, 2012

Change the Weather History Date:

Thursday, July 19, 2012

  Actual Average Record
Temperature  
Mean Temperature 72 °F 77 °F  
Max Temperature 76 °F 84 °F 102 °F (1977)
Min Temperature 68 °F 69 °F 57 °F (1924)
Degree Days  
Heating Degree Days 0 0  
Month to date heating degree days 0 0  
Since 1 June heating degree days 15 19  
Since 1 July heating degree days 0 0  
Cooling Degree Days 7 12  
Month to date cooling degree days 308 216  
Year to date cooling degree days 624 497  
Since 1 June cooling degree days 509 428  
Growing Degree Days 22 (Base 50)    
Moisture  
Dew Point 65 °F    
Average Humidity 79    
Maximum Humidity 93    
Minimum Humidity 64    
Precipitation  
Precipitation 0.02 in 0.16 in 1.82 in (1919)
Month to date precipitation 2.69 2.71  
Year to date precipitation 20.16 26.91  
Snow  
Snow 0.00 in 0.00 in 0.00 in (2002)
Month to date snowfall 0.0 0.0  
Since 1 July snowfall 0.0 0.0  
Snow Depth 0.00 in    
Sea Level Pressure  
Sea Level Pressure 29.95 in    
Wind  
Wind Speed 5 mph (NE)    
Max Wind Speed 17 mph    
Max Gust Speed 22 mph    
Visibility 9 miles    
Events Rain    
T = Trace of Precipitation, MM = Missing Value Source: NWS Daily Summary

Daily Weather History Graph

Daily Weather History Graph

Search for Another Location

Airport or City:

Trip Planner

Search our weather history database for the weather conditions in past years. The results will help you decide how hot, cold, wet, or windy it might be!

Date:

Astronomy

Jul. 19, 2012 Rise Set
Actual Time 5:41 AM EDT 8:22 PM EDT
Civil Twilight 5:09 AM EDT 8:54 PM EDT
Nautical Twilight 4:28 AM EDT 9:34 PM EDT
Astronomical Twilight 3:43 AM EDT 10:20 PM EDT
Moon 6:13 AM EDT (7/19) 8:27 PM EDT (7/19)
Length of Visible Light 15h 45m
Length of Day
14h 41m
New Moon, 0% of the Moon is Illuminated
Jul 19
New Moon
Jul 26
First Quarter
Aug 1
Full
Aug 9
Last Quarter
Aug 17
New

Hourly Weather History & Observations

Time (EDT) Temp. Dew Point Humidity Pressure Visibility Wind Dir Wind Speed Gust Speed Precip Events Conditions
12:51 AM 73.0 °F 72.0 °F 96% 29.88 in 4.0 mi Calm Calm - N/A   Clear
1:51 AM 73.9 °F 72.0 °F 93% 29.89 in 6.0 mi Calm Calm - N/A   Clear
2:51 AM 73.9 °F 71.1 °F 91% 29.87 in 8.0 mi Calm Calm - N/A   Clear
3:51 AM 73.9 °F 72.0 °F 93% 29.87 in 6.0 mi Calm Calm - N/A   Overcast
4:51 AM 75.0 °F 70.0 °F 84% 29.88 in 8.0 mi Variable 3.5 mph - N/A   Scattered Clouds
5:51 AM 73.9 °F 70.0 °F 87% 29.91 in 9.0 mi ENE 10.4 mph - N/A   Overcast
5:58 AM 75.0 °F 69.1 °F 82% 29.94 in 9.0 mi Variable 5.8 mph - N/A   Overcast
6:51 AM 73.9 °F 68.0 °F 82% 29.92 in 8.0 mi ENE 9.2 mph - N/A   Overcast
7:40 AM 73.9 °F 64.0 °F 71% 29.97 in 9.0 mi ENE 8.1 mph - N/A   Scattered Clouds
7:51 AM 73.9 °F 64.0 °F 71% 29.94 in 9.0 mi Variable 6.9 mph 20.7 mph N/A   Clear
8:39 AM 72.0 °F 63.0 °F 73% 29.98 in 10.0 mi ENE 11.5 mph 18.4 mph N/A   Mostly Cloudy
8:51 AM 73.0 °F 63.0 °F 71% 29.96 in 10.0 mi ENE 11.5 mph 20.7 mph N/A   Overcast
9:51 AM 73.0 °F 62.1 °F 68% 29.98 in 10.0 mi ENE 16.1 mph 20.7 mph N/A   Overcast
10:43 AM 72.0 °F 57.9 °F 61% 30.02 in 10.0 mi ENE 10.4 mph - N/A   Overcast
10:51 AM 72.0 °F 60.1 °F 66% 29.99 in 10.0 mi ENE 10.4 mph - N/A   Overcast
11:51 AM 73.9 °F 61.0 °F 64% 30.00 in 10.0 mi Variable 3.5 mph - N/A   Overcast
12:51 PM 75.0 °F 62.1 °F 64% 29.99 in 10.0 mi NE 10.4 mph - N/A   Overcast
1:51 PM 70.0 °F 64.9 °F 84% 29.99 in 4.0 mi Variable 4.6 mph - 0.01 in Rain Light Rain
2:51 PM 69.1 °F 62.1 °F 78% 29.98 in 10.0 mi Calm Calm - 0.01 in   Overcast
3:51 PM 71.1 °F 64.0 °F 78% 29.96 in 10.0 mi Calm Calm - N/A   Overcast
4:51 PM 73.9 °F 64.0 °F 71% 29.95 in 9.0 mi North 3.5 mph - N/A   Mostly Cloudy
5:51 PM 75.0 °F 64.9 °F 71% 29.94 in 9.0 mi Calm Calm - N/A   Mostly Cloudy
6:51 PM 73.9 °F 64.9 °F 73% 29.94 in 9.0 mi Variable 3.5 mph - N/A   Overcast
7:51 PM 73.9 °F 64.9 °F 73% 29.94 in 9.0 mi Calm Calm - N/A   Overcast
8:51 PM 73.0 °F 63.0 °F 71% 29.96 in 10.0 mi Variable 3.5 mph - N/A   Overcast
9:51 PM 73.0 °F 61.0 °F 66% 29.97 in 10.0 mi Variable 3.5 mph - N/A   Overcast
10:51 PM 72.0 °F 61.0 °F 68% 29.97 in 10.0 mi Variable 4.6 mph - N/A   Overcast
11:51 PM 72.0 °F 61.0 °F 68% 29.97 in 10.0 mi Variable 5.8 mph - N/A   Overcast